Location: Kott?ru
(16.6209°N, 80.6208°E)
Time: 01:25:42
(UTC+00:00)

Cosmos 2082 - Pass Details

Date: 18 September 2020
Orbit: 832 x 856 km, 71.0° (Epoch: 26 October)

Event Time Altitude Azimuth Distance (km) Brightness Sun altitude
Rises 22:57:53 0° 333° (NNW) 3,411 6.7 -21.9°
Enters shadow 22:58:00 - 333° (NNW) 3,366 6.6 -21.9°
Exits shadow 23:02:02 19° 320° (NW) 1,921 5.3 -20.9°
Maximum altitude 23:05:48 45° 256° (WSW) 1,151 3.9 -20.0°
Drops below altitude 10° 23:11:12 10° 185° (S) 2,479 6.0 -18.7°
Sets 23:13:45 0° 178° (S) 3,414 6.8 -18.1°
